Change the Weather History Date:

Friday, April 25, 2014

  Actual Average Record
Temperature  
Mean Temperature 63 °F 59 °F  
Max Temperature 84 °F 72 °F 96 °F (2012)
Min Temperature 41 °F 47 °F 29 °F (1910)
Degree Days  
Heating Degree Days 2 7  
Month to date heating degree days 228 260  
Since 1 July heating degree days 4903 4357  
Cooling Degree Days 0 1  
Month to date cooling degree days 20 17  
Year to date cooling degree days 20 19  
Growing Degree Days 12 (Base 50)    
Moisture  
Dew Point 37 °F    
Average Humidity 48    
Maximum Humidity 76    
Minimum Humidity 20    
Precipitation  
Precipitation 0.00 in 0.09 in 1.55 in (1965)
Month to date precipitation 0.63 1.93  
Year to date precipitation 2.07 5.94  
Snow  
Snow 0.00 in 0.00 in - ()
Month to date snowfall 0.0 0.0  
Since 1 July snowfall 27.0 8.5  
Snow Depth 0.00 in    
Sea Level Pressure  
Sea Level Pressure 29.84 in    
Wind  
Wind Speed 13 mph (South)    
Max Wind Speed 30 mph    
Max Gust Speed 42 mph    
T = Trace of Precipitation, MM = Missing Value Source: NWS Daily Summary

Daily Weather History Graph

Daily Weather History Graph

Search for Another Location

Airport or City:

Trip Planner

Search our weather history database for the weather conditions in past years. The results will help you decide how hot, cold, wet, or windy it might be!

Date:

Astronomy

Apr. 25, 2014 Rise Set
Actual Time 6:46 AM CDT 8:18 PM CDT
Civil Twilight 6:18 AM CDT 8:46 PM CDT
Nautical Twilight 5:45 AM CDT 9:19 PM CDT
Astronomical Twilight 5:10 AM CDT 9:54 PM CDT
Moon 4:30 AM CDT (4/25) 4:46 PM CDT (4/25)
Length of Visible Light 14h 27m
Length of Day
13h 31m
Waning Crescent, 15% of the Moon is Illuminated
Apr 25
Waning Crescent
Apr 29
New
May 6
First Quarter
May 14
Full
May 21
Last Quarter

Hourly Weather History & Observations

Time (CDT) Temp. Windchill Dew Point Humidity Pressure Visibility Wind Dir Wind Speed Gust Speed Precip Events Conditions
12:56 AM 45.0 °F - 37.0 °F 74% 29.92 in - Calm Calm - N/A   Unknown
1:56 AM 45.0 °F 43.5 °F 35.1 °F 68% 29.91 in - South 3.5 mph - N/A   Unknown
2:56 AM 51.1 °F - 34.0 °F 52% 29.91 in - South 4.6 mph - N/A   Unknown
3:56 AM 46.9 °F - 34.0 °F 61% 29.92 in - Calm Calm - N/A   Unknown
4:56 AM 43.0 °F 40.3 °F 34.0 °F 71% 29.92 in - South 4.6 mph - N/A   Unknown
5:56 AM 41.0 °F - 34.0 °F 76% 29.93 in - Calm Calm - N/A   Unknown
6:56 AM 51.1 °F - 35.1 °F 54% 29.92 in - SSE 5.8 mph - N/A   Unknown
7:56 AM 50.0 °F - 37.0 °F 61% 29.95 in - SSE 3.5 mph - N/A   Unknown
8:56 AM 55.9 °F - 39.0 °F 53% 29.94 in - South 11.5 mph - N/A   Unknown
9:56 AM 66.0 °F - 37.0 °F 34% 29.93 in - South 16.1 mph 24.2 mph N/A   Unknown
10:56 AM 71.1 °F - 36.0 °F 28% 29.92 in - South 17.3 mph - N/A   Unknown
11:56 AM 75.0 °F - 35.1 °F 23% 29.89 in - SSW 23.0 mph 31.1 mph N/A   Unknown
12:56 PM 75.9 °F - 35.1 °F 23% 29.86 in - SSW 17.3 mph 31.1 mph N/A   Unknown
1:56 PM 79.0 °F - 36.0 °F 21% 29.82 in - South 24.2 mph 31.1 mph N/A   Unknown
2:56 PM 81.0 °F - 37.0 °F 21% 29.80 in - SSW 26.5 mph 33.4 mph N/A   Unknown
3:56 PM 82.9 °F - 37.0 °F 19% 29.77 in - South 21.9 mph 31.1 mph N/A   Unknown
4:56 PM 82.9 °F - 37.9 °F 20% 29.74 in - South 21.9 mph 28.8 mph N/A   Unknown
5:56 PM 81.0 °F - 39.0 °F 22% 29.73 in - South 17.3 mph 29.9 mph N/A   Unknown
6:56 PM 81.0 °F - 39.9 °F 23% 29.71 in - South 20.7 mph 27.6 mph N/A   Unknown
7:56 PM 77.0 °F - 41.0 °F 28% 29.71 in - South 13.8 mph - N/A   Unknown
8:56 PM 73.0 °F - 41.0 °F 31% 29.73 in - South 10.4 mph 18.4 mph N/A   Unknown
9:56 PM 70.0 °F - 42.1 °F 36% 29.75 in - SE 9.2 mph - N/A   Unknown
10:56 PM 68.0 °F - 43.0 °F 40% 29.75 in - SE 8.1 mph - N/A   Unknown
11:56 PM 66.0 °F - 42.1 °F 42% 29.73 in - SE 10.4 mph - N/A   Unknown